Location: Big Indian Creek
(32.3896°N, 83.5063°W)
Time: 07:06:11
(UTC+00:00)

Daily predictions for brighter satellites

Satellite Brightness Start Highest point End
(mag) Time Altitude Azimuth Time Altitude Azimuth Time Altitude Azimuth
NOSS 3-3 (A) 4.4 23:03:04 10° S 23:08:04 35° ESE 23:13:29 10° NE
NOSS 3-3 (C) 4.4 23:03:07 10° S 23:08:12 35° ESE 23:13:38 10° NE
Cosmos 1980 Rocket 3.9 23:07:40 10° ESE 23:09:12 11° E 23:10:44 10° E
Okean O Rocket 1.6 23:06:28 10° SSE 23:10:50 85° ENE 23:15:12 10° N
Cosmos 1455 4.1 23:10:34 10° ESE 23:11:43 11° E 23:12:53 10° ENE
YAOGAN 1 4.4 23:10:45 10° E 23:11:55 11° ENE 23:13:05 10° NE
Cosmos 292 Rocket 4.3 23:08:32 10° SSW 23:13:15 65° WNW 23:18:03 10° N
Cosmos 1302 Rocket 4.0 23:08:04 10° S 23:13:17 76° ESE 23:18:33 10° NNE
CORIOLIS 4.1 23:08:00 10° SSE 23:13:18 74° ENE 23:18:39 10° N
Cosmos 1825 Rocket 3.5 23:09:01 10° N 23:13:27 68° E 23:17:48 10° SSE
Delta 2 Rocket 4.0 23:09:53 10° WNW 23:14:57 70° N 23:20:31 10° E
Cosmos 2297 Rocket 3.3 23:12:12 10° N 23:16:38 23° ENE 23:21:03 10° ESE
FengYun 1-2 T 4.3 23:11:47 10° SSE 23:17:20 60° ENE 23:22:53 10° N
YAOGAN 6 3.8 23:14:22 10° S 23:17:52 48° W 23:21:26 10° NNW
Envisat 4.2 23:14:34 10° S 23:19:28 49° W 23:24:23 10° NNW
Meteor 1-11 4.3 23:14:09 10° N 23:19:54 85° E 23:25:42 10° S
Cosmos 1726 Rocket 3.7 23:17:05 10° S 23:21:24 81° W 23:25:46 10° N
CZ-4B R/B 2.2 23:18:55 10° N 23:22:00 49° WNW 23:25:00 10° SSW
SMAP 3.5 23:19:03 10° S 23:23:39 67° WSW 23:28:18 10° NNW
Aureole 3 2.8 23:21:02 10° S 23:24:26 59° E 23:27:25 10° NNE
Cosmos 1939 Rocket 3.5 23:21:01 10° SE 23:24:36 32° ENE 23:28:08 10° N
Aureole 3 Rocket 2.8 23:23:56 10° S 23:27:22 61° E 23:31:54 10° NNE
Cosmos 2228 4.2 23:23:24 10° SSW 23:27:27 45° W 23:31:34 10° N
Cosmos 44 Rocket 4.3 23:24:19 10° SSE 23:28:04 24° ESE 23:31:49 10° ENE
Cosmos 1689 Rocket 1.9 23:30:01 10° NNE 23:32:53 69° ESE 23:35:43 10° S
Milstar 3 3.1 23:25:36 10° WSW 23:32:59 62° S 23:39:02 13° E
Helios 1A Rocket 3.8 23:29:40 10° SE 23:33:09 27° ENE 23:36:38 10° NNE
CZ-2C R/B 4.2 23:28:33 10° ESE 23:33:13 26° ENE 23:37:48 10° NNE
Meteor 2-8 Rocket 4.4 23:32:49 10° S 23:38:53 79° E 23:45:01 10° N
Feng Yun 1-1 Rocket 4.3 23:33:36 10° SSE 23:39:25 72° ENE 23:45:20 10° N
Cosmos 1400 Rocket 3.2 23:38:44 10° SSW 23:42:50 68° W 23:46:55 10° N
Meteor 2-10 Rocket 3.8 23:38:12 10° SSE 23:43:22 48° E 23:48:22 10° NNE
Okean-O 3.2 23:40:52 10° SE 23:44:52 34° ENE 23:48:53 10° N
Timation 2 Rocket 4.1 23:38:20 10° NNW 23:45:01 70° ENE 23:51:51 10° SSE
Cosmos 2219 3.5 23:42:02 10° N 23:47:34 46° ENE 23:53:03 10° SE
CZ-4 R/B 1.9 23:45:38 10° SE 23:49:09 32° ENE 23:52:37 10° N
USA 281 3.9 23:43:49 10° S 23:50:15 59° WSW 23:56:43 10° NNW
Cosmos 1992 Rocket 3.9 23:46:55 10° S 23:52:02 65° ESE 23:57:12 10° NNE
SKYMED 2 4.1 23:48:08 10° N 23:52:26 63° WNW 23:56:42 10° SSW
OAO 2 Rocket 3.3 23:49:29 10° W 23:54:29 72° N 23:57:25 24° ENE
Cosmos 220 Rocket 3.9 23:50:37 10° S 23:54:54 78° ESE 23:59:18 10° NNE
Cosmos 1892 3.0 23:51:18 10° N 23:55:00 42° E 23:58:41 10° SSE
Cosmos 1408 4.1 23:53:20 10° NNE 23:54:58 20° NE 23:54:58 20° NE
